AirNav   Air Wisconsin pilot careers
 
 1099 users online  

W91 Smith Mountain Lake Airport
Moneta, Virginia, USA

GOING TO MONETA?


FAA INFORMATION EFFECTIVE 21 JUNE 2018

Location

FAA Identifier: W91
Lat/Long: 37-06-27.8000N / 079-35-32.9000W
37-06.463333N / 079-35.548333W
37.1077222 / -79.5924722
(estimated)
Elevation: 892.2 ft. / 271.9 m (surveyed)
Variation: 09W (2010)
From city: 4 miles SE of MONETA, VA
Time zone: UTC -4 (UTC -5 during Standard Time)
Zip code: 24121

Airport Operations

Airport use: Open to the public
Activation date: 03/1962
Control tower: no
ARTCC: WASHINGTON CENTER
FSS: LEESBURG FLIGHT SERVICE STATION
NOTAMs facility: DCA (NOTAM-D service available)
Attendance: DAYLIGHT HOURS
Wind indicator: yes
Segmented circle: no
Beacon: white-green (lighted land airport)
Operates sunset to sunrise.

Airport Communications

CTAF/UNICOM: 122.975
ROANOKE APPROACH: 135.0
ROANOKE DEPARTURE: 135.0
IC: 135.0

Nearby radio navigation aids

VOR radial/distance  VOR name  Freq  Var
LYHr248/19.2LYNCHBURG VORTAC109.2005W
ODRr133/(22.6)WOODRUM VOR114.9008W
ROAr126/26.9ROANOKE VOR/DME109.4004W
DANr345/(34.6)DANVILLE VOR113.1006W
SBVr318/38.0SOUTH BOSTON VORTAC110.4005W

 
NDB name  Hdg/Dist  Freq  Var  ID
VINTON121/15.027708WVIT ...- .. -
TECH105/39.236806WTEC - . -.-.

Airport Services

Fuel available: 100LL
24-HR SELF-SERVE FUEL AVAILABLE WITH CREDIT CARD.
Parking: tiedowns
Airframe service: MAJOR
Powerplant service: MAJOR
Bottled oxygen: NONE
Bulk oxygen: NONE

Runway Information

Runway 5/23

Dimensions: 3058 x 50 ft. / 932 x 15 m
Surface: asphalt, in good condition
Runway edge lights: medium intensity
Runway edge markings: MARKINGS VARY BTN FAIR AND POOR.
NON-STD SML DSPLCEMNT ARROWS AND CNTRLN MARKING FIRST QTR OF RY ONLY.
RUNWAY 5  RUNWAY 23
Latitude: 37-06.285267N37-06.641983N
Longitude: 079-35.770783W079-35.326567W
Elevation: 854.7 ft.892.0 ft.
Gradient: 1.2% UP1.2% DOWN
Traffic pattern: leftleft
Runway heading: 054 magnetic, 045 true234 magnetic, 225 true
Displaced threshold: 250 ft.no
Markings: NSTD, in fair conditionNSTD, in fair condition
Runway end identifier lights: noyes
REIL OTS INDEFLY.
Touchdown point: yes, no lightsyes, no lights
Obstructions: 35 ft. trees, 290 ft. from runway, 127 ft. right of centerline, 2:1 slope to clear
RY 05 HAS +12 FT ROAD AT THLD 100 FT R. PWR POLE 128 FT RIGHT OF APCH 86 FT FM THLD.
62 ft. tree, 749 ft. from runway, 219 ft. right of centerline, 8:1 slope to clear
+15 FT ROAD AT THLD 125 FT L.

Airport Ownership and Management from official FAA records

Ownership: Privately-owned
Owner: SMITH MOUNTAIN LAKE AIRPORT, LLC.
1090 CUTLASS RD
MONETA, VA 24121
Phone 540-297-4859
Manager: MIKE MATTA
1090 CUTLASS RD
MONETA, VA 24121
Phone 540-297-4859

Airport Operational Statistics

Aircraft based on the field: 21
Single engine airplanes: 20
Multi engine airplanes: 1
    
Aircraft operations: avg 102/week *
51% local general aviation
44% transient general aviation
5% air taxi
<1% military
* for 12-month period ending 30 April 2017

Additional Remarks

DEER ON & INVOF ARPT.
ROA TWR SVCS AVBL AT 540-563-1307.

Instrument Procedures

NOTE: All procedures below are presented as PDF files. If you need a reader for these files, you should download the free Adobe Reader.

NOT FOR NAVIGATION. Please procure official charts for flight.
FAA instrument procedures published for use from 21 June 2018 at 0901Z to 19 July 2018 at 0900Z.

 
IAPs - Instrument Approach Procedures
RNAV (GPS) RWY 23   download (176KB)
NOTE: Special Take-Off Minimums/Departure Procedures apply   download

Other nearby airports with instrument procedures:

W90 - New London Airport (16 nm NE)
KROA - Roanoke-Blacksburg Regional Airport/Woodrum Field (22 nm NW)
KLYH - Lynchburg Regional Airport/Preston Glenn Field (23 nm NE)
0V4 - Brookneal/Campbell County Airport (28 nm E)
W24 - Falwell Airport (28 nm NE)
 
Loc | Ops | Rwys | IFR | FBO | Links
Com | Nav | Svcs | Stats | Notes

AirNav Hotels Sweepstakes
 
Area around W91 (Smith Mountain Lake Airport)
 
Road maps at: MapQuest Bing Google
 
Aerial photo
WARNING: Photo may not be current or correct
Aerial photo of W91 (Smith Mountain Lake Airport)
Photo by Moe
Photo taken 23-May-2015
looking west.

Do you have a better or more recent aerial photo of Smith Mountain Lake Airport that you would like to share? If so, please send us your photo.

 
Sectional chart

 
Airport distance calculator
Flying to Smith Mountain Lake Airport? Find the distance to fly.

From to W91

Sunrise and sunset
Times for 23-Jun-2018
 Local
(UTC-4)
 Zulu
(UTC)
Morning civil twilight05:2909:29
Sunrise06:0010:00
Sunset20:4100:41
Evening civil twilight21:1201:12

Current date and time
Zulu (UTC)  23-Jun-2018 18:10:02
Local (UTC-4)  23-Jun-2018 14:10:02
 
METAR
KROA 
22nm NW 
231754Z 19010KT 10SM SCT036 SCT043 28/17 A2987 RMK AO2 SLP101 T02830172 10289 20206 58008
KLYH 
23nm NE 
231754Z 20005KT 10SM SCT018 SCT023 BKN100 26/21 A2986 RMK AO2 SLP103 T02610206 10261 20200 58005
K0V4 
28nm E 
231755Z AUTO 23003KT 10SM OVC090 27/22 A2985 RMK AO1 T02710223 10277 20210
KDAN 
35nm S 
231753Z AUTO 23004KT 10SM FEW031 28/22 A2985 RMK AO2 SLP098 T02830217 10283 20211 58005
KMTV 
36nm SW 
231755Z AUTO 25005KT 10SM CLR 28/21 A2990 RMK AO2 60006 T02780208 10278 20207
KBCB 
40nm W 
231755Z AUTO 24007KT 210V280 10SM SCT040 SCT048 BKN075 27/18 A2994 RMK AO2 T02650180 10270 20200
KSIF 
42nm S 
231755Z AUTO 26005KT 10SM SCT035 SCT085 SCT095 28/21 A2987 RMK AO2 T02790208 10284 20217
KW78 
43nm SE 
231750Z AUTO 24007KT 10SM SCT027 SCT033 29/21 A2985 RMK AO1 T02880210
TAF
KROA 
22nm NW 
231725Z 2318/2418 17007KT P6SM VCTS SCT020 BKN035CB TEMPO 2318/2322 4SM -SHRA OVC020 FM240100 27006KT P6SM VCSH BKN200 FM241000 VRB04KT P6SM SCT060 FM241700 27009KT P6SM SCT100
KLYH 
23nm NE 
231725Z 2318/2418 21008KT P6SM SCT020 BKN080 TEMPO 2318/2322 4SM -SHRA OVC020 FM240000 24005KT P6SM VCSH BKN150 FM240400 VRB03KT P6SM SCT150 FM241500 27007KT P6SM FEW130
NOTAMs
Click for the latest NOTAMs
NOTAMs are issued by the DoD/FAA and will open in a separate window not controlled by AirNav.

 

 
 

FBO, Fuel Providers, and Aircraft Ground Support

  
 Business Name 
 
 Contact 
 
 Services / Description 
 
Fuel Prices
 
Comments
  
Smith Mountain Lake Airport 540-297-4859
no information available

If you are affiliated with Smith Mountain Lake Airport and would like to show here your services, contact info, web link, logo, and more, click here
100LL
SS $4.69 
 Updated 18-Jun-2018
 
   5 read write
SS=Self service
Update Fuel Prices
 

Would you like to see your business listed on this page?

 If your business provides an interesting product or service to pilots, flight crews, aircraft, or users of the Smith Mountain Lake Airport, you should consider listing it here.  To start the listing process, click on the button below
 
Add a business
 

Other Pages about Smith Mountain Lake Airport

smlairport.com
 
Update a link
 
Copyright © AirNav, LLC. All rights reserved. Privacy Policy  Contact